User: anonymous   Login
Location: Oshawa
(43.9000°N, 78.8670°W)
Time: 07:49:40
(UTC-04:00)
Language:

PAYLOAD A - Orbit

View from above orbital plane
View from above orbital plane
View from above satellite
View from above satellite

Ground track
Ground track

The orbit data is extracted from the following two-line orbital elements,

1 27840U 03031A   15212.88621829  .00000006  00000-0  15012-4 0  9992
2 27840 098.2065 229.4304 0098957 028.7434 036.6887 14.38815647634629
Epoch (UTC): 31 July 2015 21:16:09
Eccentricity: 0.0098957
inclination: 98.2065°
perigee height: 692 km
apogee height: 833 km
right ascension of ascending node: 229.4304°
argument of perigee: 28.7434°
revolutions per day: 14.38815647
mean anomaly at epoch: 36.6887°
orbit number at epoch: 63462

The dashed part of the orbit path shows where the satellite is in the earth's shadow,  

DLR